Time,TemperatureF,DewpointF,PressureIn,WindDirection,WindDirectionDegrees,WindSpeedMPH,WindSpeedGustMPH,Humidity,HourlyPrecipIn,Conditions,Clouds,dailyrainin,SoftwareType,DateUTC
2013-02-23 00:04:00,39.7,24.9,30.09,NNE,22,0.0,0.0,55,0.00,,---,0.00,VWS V14.01,2013-02-23 07:04:00,
2013-02-23 00:09:00,39.7,24.5,30.09,North,0,0.0,0.0,54,0.00,,---,0.00,VWS V14.01,2013-02-23 07:09:00,
2013-02-23 00:14:00,39.9,24.6,30.09,North,0,0.0,0.0,54,0.00,,---,0.00,VWS V14.01,2013-02-23 07:14:00,
2013-02-23 00:19:00,39.9,24.2,30.09,NNE,22,0.0,0.0,53,0.00,,---,0.00,VWS V14.01,2013-02-23 07:19:00,
2013-02-23 00:24:00,39.9,24.2,30.09,North,0,0.0,0.0,53,0.00,,---,0.00,VWS V14.01,2013-02-23 07:24:00,
2013-02-23 00:29:00,39.9,24.2,30.09,NNE,22,0.0,0.0,53,0.00,,---,0.00,VWS V14.01,2013-02-23 07:29:00,
2013-02-23 00:34:00,39.7,24.0,30.09,NNE,22,0.0,0.0,53,0.00,,---,0.00,VWS V14.01,2013-02-23 07:34:00,
2013-02-23 00:39:00,39.6,23.9,30.09,North,0,0.0,0.0,53,0.00,,---,0.00,VWS V14.01,2013-02-23 07:39:00,
2013-02-23 00:44:00,39.6,23.9,30.09,NNW,338,0.0,0.0,53,0.00,,---,0.00,VWS V14.01,2013-02-23 07:44:00,
2013-02-23 00:49:00,39.6,23.9,30.09,NNW,338,0.0,0.0,53,0.00,,---,0.00,VWS V14.01,2013-02-23 07:49:00,
2013-02-23 00:54:00,39.4,23.7,30.09,NNW,338,0.0,0.0,53,0.00,,---,0.00,VWS V14.01,2013-02-23 07:54:00,
2013-02-23 00:59:00,39.4,23.7,30.09,NNW,338,0.0,0.0,53,0.00,,---,0.00,VWS V14.01,2013-02-23 07:59:00,
2013-02-23 01:04:00,39.4,23.7,30.09,North,0,0.0,0.0,53,0.00,,---,0.00,VWS V14.01,2013-02-23 08:04:00,
2013-02-23 01:09:00,39.4,23.2,30.09,NNW,338,0.0,0.0,52,0.00,,---,0.00,VWS V14.01,2013-02-23 08:09:00,
2013-02-23 01:14:00,39.4,23.2,30.09,NNW,338,0.0,0.0,52,0.00,,---,0.00,VWS V14.01,2013-02-23 08:14:00,
2013-02-23 01:19:00,39.4,23.2,30.09,NW,315,0.0,0.0,52,0.00,,---,0.00,VWS V14.01,2013-02-23 08:19:00,
2013-02-23 01:24:00,39.4,23.2,30.09,NNW,338,0.0,0.0,52,0.00,,---,0.00,VWS V14.01,2013-02-23 08:24:00,
2013-02-23 01:30:00,39.2,23.1,30.09,NNW,338,0.0,0.0,52,0.00,,---,0.00,VWS V14.01,2013-02-23 08:30:00,
2013-02-23 01:35:00,38.8,22.7,30.09,NW,315,0.0,0.0,52,0.00,,---,0.00,VWS V14.01,2013-02-23 08:35:00,
2013-02-23 01:40:00,38.5,22.9,30.09,SSW,202,0.0,0.0,53,0.00,,---,0.00,VWS V14.01,2013-02-23 08:40:00,
2013-02-23 01:45:00,38.1,23.0,30.09,SW,225,0.0,0.0,54,0.00,,---,0.00,VWS V14.01,2013-02-23 08:45:00,
2013-02-23 01:50:00,37.6,22.9,30.09,SW,225,0.0,0.0,55,0.00,,---,0.00,VWS V14.01,2013-02-23 08:50:00,
2013-02-23 01:55:00,37.0,22.8,30.09,SW,225,0.0,0.0,56,0.00,,---,0.00,VWS V14.01,2013-02-23 08:55:00,
2013-02-23 02:00:00,36.7,22.5,30.09,SW,225,0.0,0.0,56,0.00,,---,0.00,VWS V14.01,2013-02-23 09:00:00,
2013-02-23 02:05:00,36.1,22.4,30.09,SW,225,0.0,0.0,57,0.00,,---,0.00,VWS V14.01,2013-02-23 09:05:00,
2013-02-23 02:10:00,35.8,22.5,30.06,SW,225,0.0,0.0,58,0.00,,---,0.00,VWS V14.01,2013-02-23 09:10:00,
2013-02-23 02:15:00,35.6,22.3,30.06,SW,225,0.0,0.0,58,0.00,,---,0.00,VWS V14.01,2013-02-23 09:15:00,
2013-02-23 02:20:00,35.6,23.1,30.06,NNW,338,0.0,0.0,60,0.00,,---,0.00,VWS V14.01,2013-02-23 09:20:00,
2013-02-23 02:25:00,35.8,23.7,30.06,North,0,0.0,0.0,61,0.00,,---,0.00,VWS V14.01,2013-02-23 09:25:00,
2013-02-23 02:30:00,35.8,23.7,30.06,North,0,0.0,0.0,61,0.00,,---,0.00,VWS V14.01,2013-02-23 09:30:00,
2013-02-23 02:35:00,35.6,23.1,30.06,NNW,338,0.0,0.0,60,0.00,,---,0.00,VWS V14.01,2013-02-23 09:35:00,
2013-02-23 02:40:00,35.4,23.3,30.06,North,0,0.0,0.0,61,0.00,,---,0.00,VWS V14.01,2013-02-23 09:40:00,
2013-02-23 02:45:00,35.4,23.7,30.06,North,0,0.0,0.0,62,0.00,,---,0.00,VWS V14.01,2013-02-23 09:45:00,
2013-02-23 02:50:00,35.2,23.9,30.06,NNE,22,0.0,0.0,63,0.00,,---,0.00,VWS V14.01,2013-02-23 09:50:00,
2013-02-23 02:55:00,35.2,23.9,30.06,NNW,338,0.0,0.0,63,0.00,,---,0.00,VWS V14.01,2013-02-23 09:55:00,
2013-02-23 03:00:00,35.1,23.4,30.06,NNW,338,0.0,0.0,62,0.00,,---,0.00,VWS V14.01,2013-02-23 10:00:00,
2013-02-23 03:06:00,34.9,23.6,30.06,NNW,338,0.0,0.0,63,0.00,,---,0.00,VWS V14.01,2013-02-23 10:06:00,
2013-02-23 03:11:00,34.9,23.6,30.06,NNW,338,0.0,0.0,63,0.00,,---,0.00,VWS V14.01,2013-02-23 10:11:00,
2013-02-23 03:16:00,34.7,23.8,30.06,North,0,0.0,0.0,64,0.00,,---,0.00,VWS V14.01,2013-02-23 10:16:00,
2013-02-23 03:21:00,34.7,23.8,30.06,NW,315,0.0,0.0,64,0.00,,---,0.00,VWS V14.01,2013-02-23 10:21:00,
2013-02-23 03:26:00,34.9,24.3,30.06,NNW,338,0.0,0.0,65,0.00,,---,0.00,VWS V14.01,2013-02-23 10:26:00,
2013-02-23 03:31:00,34.9,24.7,30.06,NNW,338,0.0,0.0,66,0.00,,---,0.00,VWS V14.01,2013-02-23 10:31:00,
2013-02-23 03:36:00,35.1,24.5,30.06,NNW,338,0.0,0.0,65,0.00,,---,0.00,VWS V14.01,2013-02-23 10:36:00,
2013-02-23 03:41:00,35.1,24.5,30.06,NNW,338,0.0,0.0,65,0.00,,---,0.00,VWS V14.01,2013-02-23 10:41:00,
2013-02-23 03:46:00,35.1,24.9,30.06,NNW,338,0.0,0.0,66,0.00,,---,0.00,VWS V14.01,2013-02-23 10:46:00,
2013-02-23 03:51:00,35.1,24.9,30.06,NNW,338,0.0,0.0,66,0.00,,---,0.00,VWS V14.01,2013-02-23 10:51:00,
2013-02-23 03:56:00,35.1,24.5,30.03,NNW,338,0.0,0.0,65,0.00,,---,0.00,VWS V14.01,2013-02-23 10:56:00,
2013-02-23 04:01:00,35.1,24.5,30.03,NNW,338,0.0,0.0,65,0.00,,---,0.00,VWS V14.01,2013-02-23 11:01:00,
2013-02-23 04:06:00,34.9,24.3,30.03,NNW,338,0.0,0.0,65,0.00,,---,0.00,VWS V14.01,2013-02-23 11:06:00,
2013-02-23 04:11:00,34.9,24.0,30.03,North,0,0.0,0.0,64,0.00,,---,0.00,VWS V14.01,2013-02-23 11:11:00,
2013-02-23 04:16:00,35.1,24.5,30.03,NNW,338,0.0,0.0,65,0.00,,---,0.00,VWS V14.01,2013-02-23 11:16:00,
2013-02-23 04:21:00,35.1,24.1,30.03,NNW,338,0.0,0.0,64,0.00,,---,0.00,VWS V14.01,2013-02-23 11:21:00,
2013-02-23 04:26:00,35.1,24.5,30.03,NNW,338,0.0,0.0,65,0.00,,---,0.00,VWS V14.01,2013-02-23 11:26:00,
2013-02-23 04:31:00,35.1,24.1,30.03,NNW,338,0.0,0.0,64,0.00,,---,0.00,VWS V14.01,2013-02-23 11:31:00,
2013-02-23 04:36:00,34.9,24.0,30.03,NNW,338,0.0,0.0,64,0.00,,---,0.00,VWS V14.01,2013-02-23 11:36:00,
2013-02-23 04:42:00,34.7,23.8,30.03,NNW,338,0.0,0.0,64,0.00,,---,0.00,VWS V14.01,2013-02-23 11:42:00,
2013-02-23 04:47:00,34.5,23.6,30.03,North,0,0.0,0.0,64,0.00,,---,0.00,VWS V14.01,2013-02-23 11:47:00,
2013-02-23 04:52:00,34.3,23.4,30.03,NW,315,0.0,0.0,64,0.00,,---,0.00,VWS V14.01,2013-02-23 11:52:00,
2013-02-23 04:57:00,34.2,23.6,30.03,NNW,338,0.0,0.0,65,0.00,,---,0.00,VWS V14.01,2013-02-23 11:57:00,
2013-02-23 05:02:00,34.0,23.5,30.03,NNW,338,0.0,0.0,65,0.00,,---,0.00,VWS V14.01,2013-02-23 12:02:00,
2013-02-23 05:07:00,33.8,23.3,30.03,NNW,338,0.0,0.0,65,0.00,,---,0.00,VWS V14.01,2013-02-23 12:07:00,
2013-02-23 05:12:00,33.6,23.5,30.03,NNE,22,0.0,0.0,66,0.00,,---,0.00,VWS V14.01,2013-02-23 12:12:00,
2013-02-23 05:17:00,33.8,24.4,30.03,North,0,0.0,0.0,68,0.00,,---,0.00,VWS V14.01,2013-02-23 12:17:00,
2013-02-23 05:22:00,34.0,24.5,30.03,North,0,0.0,0.0,68,0.00,,---,0.00,VWS V14.01,2013-02-23 12:22:00,
2013-02-23 05:28:00,34.0,24.2,30.03,North,0,0.0,0.0,67,0.00,,---,0.00,VWS V14.01,2013-02-23 12:28:00,
2013-02-23 05:33:00,34.0,24.2,30.03,NNW,338,0.0,0.0,67,0.00,,---,0.00,VWS V14.01,2013-02-23 12:33:00,
2013-02-23 05:38:00,33.8,24.0,30.03,North,0,0.0,0.0,67,0.00,,---,0.00,VWS V14.01,2013-02-23 12:38:00,
2013-02-23 05:43:00,33.8,24.0,30.03,North,0,0.0,0.0,67,0.00,,---,0.00,VWS V14.01,2013-02-23 12:43:00,
2013-02-23 05:48:00,33.8,24.0,30.03,NNW,338,0.0,0.0,67,0.00,,---,0.00,VWS V14.01,2013-02-23 12:48:00,
2013-02-23 05:53:00,33.8,24.4,30.03,NNW,338,0.0,0.0,68,0.00,,---,0.00,VWS V14.01,2013-02-23 12:53:00,
2013-02-23 05:58:00,33.8,24.0,30.03,NNW,338,0.0,0.0,67,0.00,,---,0.00,VWS V14.01,2013-02-23 12:58:00,
2013-02-23 06:03:00,33.6,23.9,30.03,North,0,0.0,0.0,67,0.00,,---,0.00,VWS V14.01,2013-02-23 13:03:00,
2013-02-23 06:08:00,33.8,23.7,30.03,North,0,0.0,0.0,66,0.00,,---,0.00,VWS V14.01,2013-02-23 13:08:00,
2013-02-23 06:13:00,33.8,24.0,30.03,NE,45,0.0,0.0,67,0.00,,---,0.00,VWS V14.01,2013-02-23 13:13:00,
2013-02-23 06:18:00,33.6,23.5,30.03,North,0,0.0,0.0,66,0.00,,---,0.00,VWS V14.01,2013-02-23 13:18:00,
2013-02-23 06:23:00,33.8,23.7,30.03,NNW,338,0.0,0.0,66,0.00,,---,0.00,VWS V14.01,2013-02-23 13:23:00,
2013-02-23 06:28:00,34.3,23.8,30.03,NNW,338,0.0,0.0,65,0.00,,---,0.00,VWS V14.01,2013-02-23 13:28:00,
2013-02-23 06:33:00,34.5,23.6,30.03,NNE,22,0.0,0.0,64,0.00,,---,0.00,VWS V14.01,2013-02-23 13:33:00,
2013-02-23 06:38:00,34.9,23.6,30.03,NNW,338,0.0,0.0,63,0.00,,---,0.00,VWS V14.01,2013-02-23 13:38:00,
2013-02-23 06:43:00,35.2,23.5,30.03,North,0,0.0,0.0,62,0.00,,---,0.00,VWS V14.01,2013-02-23 13:43:00,
2013-02-23 06:48:00,35.4,23.3,30.03,SE,135,0.0,0.0,61,0.00,,---,0.00,VWS V14.01,2013-02-23 13:48:00,
2013-02-23 06:53:00,34.9,23.2,30.03,East,90,0.0,0.0,62,0.00,,---,0.00,VWS V14.01,2013-02-23 13:53:00,
2013-02-23 06:58:00,34.3,22.7,30.03,East,90,0.0,0.0,62,0.00,,---,0.00,VWS V14.01,2013-02-23 13:58:00,
2013-02-23 07:04:00,34.0,22.4,30.03,East,90,0.0,0.0,62,0.00,,---,0.00,VWS V14.01,2013-02-23 14:04:00,
2013-02-23 07:09:00,33.8,22.5,30.03,NNW,338,0.0,0.0,63,0.00,,---,0.00,VWS V14.01,2013-02-23 14:09:00,
2013-02-23 07:14:00,33.8,22.9,30.03,North,0,0.0,0.0,64,0.00,,---,0.00,VWS V14.01,2013-02-23 14:14:00,
2013-02-23 07:19:00,33.6,22.8,30.03,SE,135,0.0,0.0,64,0.00,,---,0.00,VWS V14.01,2013-02-23 14:19:00,
2013-02-23 07:24:00,33.4,22.6,30.03,SE,135,0.0,0.0,64,0.00,,---,0.00,VWS V14.01,2013-02-23 14:24:00,
2013-02-23 07:29:00,33.3,22.8,30.03,SE,135,0.0,0.0,65,0.00,,---,0.00,VWS V14.01,2013-02-23 14:29:00,
2013-02-23 07:34:00,33.3,23.1,30.03,ESE,112,0.0,0.0,66,0.00,,---,0.00,VWS V14.01,2013-02-23 14:34:00,
2013-02-23 07:39:00,33.6,23.9,30.03,East,90,0.0,0.0,67,0.00,,---,0.00,VWS V14.01,2013-02-23 14:39:00,
2013-02-23 07:44:00,34.2,24.7,30.03,East,90,0.0,0.0,68,0.00,,---,0.00,VWS V14.01,2013-02-23 14:44:00,
2013-02-23 07:49:00,34.9,25.4,30.03,ESE,112,0.0,0.0,68,0.00,,---,0.00,VWS V14.01,2013-02-23 14:49:00,
2013-02-23 07:54:00,35.4,26.3,30.03,ESE,112,0.0,0.0,69,0.00,,---,0.00,VWS V14.01,2013-02-23 14:54:00,
2013-02-23 07:59:00,36.1,26.6,30.03,ESE,112,0.0,0.0,68,0.00,,---,0.00,VWS V14.01,2013-02-23 14:59:00,
2013-02-23 08:04:00,36.7,27.5,30.03,NE,45,0.0,0.0,69,0.00,,---,0.00,VWS V14.01,2013-02-23 15:04:00,
2013-02-23 08:10:00,37.4,27.5,30.03,NNW,338,0.0,0.0,67,0.00,,---,0.00,VWS V14.01,2013-02-23 15:10:00,
2013-02-23 08:15:00,37.8,27.1,30.03,NNW,338,0.0,0.0,65,0.00,,---,0.00,VWS V14.01,2013-02-23 15:15:00,
2013-02-23 08:20:00,38.1,27.4,30.03,NNW,338,0.0,0.0,65,0.00,,---,0.00,VWS V14.01,2013-02-23 15:20:00,
2013-02-23 08:25:00,39.4,28.6,30.03,East,90,0.0,0.0,65,0.00,,---,0.00,VWS V14.01,2013-02-23 15:25:00,
2013-02-23 08:30:00,40.3,29.5,30.03,ESE,112,0.0,0.0,65,0.00,,---,0.00,VWS V14.01,2013-02-23 15:30:00,
2013-02-23 08:35:00,41.0,30.1,30.03,ESE,112,0.0,0.0,65,0.00,,---,0.00,VWS V14.01,2013-02-23 15:35:00,
2013-02-23 08:40:00,41.9,31.0,30.03,ESE,112,0.0,0.0,65,0.00,,---,0.00,VWS V14.01,2013-02-23 15:40:00,
2013-02-23 08:45:00,42.6,31.3,30.03,SE,135,0.0,0.0,64,0.00,,---,0.00,VWS V14.01,2013-02-23 15:45:00,
2013-02-23 08:50:00,43.2,31.4,30.03,ENE,68,0.0,0.0,63,0.00,,---,0.00,VWS V14.01,2013-02-23 15:50:00,
2013-02-23 08:55:00,43.5,29.7,30.03,ESE,112,0.0,0.0,58,0.00,,---,0.00,VWS V14.01,2013-02-23 15:55:00,
2013-02-23 09:01:00,44.1,29.8,30.03,NNE,22,0.0,0.0,57,0.00,,---,0.00,VWS V14.01,2013-02-23 16:01:00,
2013-02-23 09:06:00,44.4,28.4,30.03,East,90,0.0,0.0,53,0.00,,---,0.00,VWS V14.01,2013-02-23 16:06:00,
2013-02-23 09:11:00,45.1,28.6,30.03,NE,45,0.0,0.0,52,0.00,,---,0.00,VWS V14.01,2013-02-23 16:11:00,
2013-02-23 09:16:00,45.7,28.6,30.03,NE,45,0.0,0.0,51,0.00,,---,0.00,VWS V14.01,2013-02-23 16:16:00,
2013-02-23 09:21:00,46.2,29.6,30.03,SE,135,0.0,0.0,52,0.00,,---,0.00,VWS V14.01,2013-02-23 16:21:00,
2013-02-23 09:26:00,47.1,29.9,30.03,ESE,112,0.0,0.0,51,0.00,,---,0.00,VWS V14.01,2013-02-23 16:26:00,
2013-02-23 09:31:00,47.5,28.3,30.03,NNE,22,0.0,0.0,47,0.00,,---,0.00,VWS V14.01,2013-02-23 16:31:00,
2013-02-23 09:36:00,48.2,29.5,30.03,NE,45,0.0,0.0,48,0.00,,---,0.00,VWS V14.01,2013-02-23 16:36:00,
2013-02-23 09:41:00,48.6,29.8,30.03,East,90,0.0,0.0,48,0.00,,---,0.00,VWS V14.01,2013-02-23 16:41:00,
2013-02-23 09:46:00,49.6,31.3,30.03,ENE,68,0.0,2.2,49,0.00,,---,0.00,VWS V14.01,2013-02-23 16:46:00,
2013-02-23 09:51:00,50.2,31.3,30.03,North,0,0.0,0.0,48,0.00,,---,0.00,VWS V14.01,2013-02-23 16:51:00,
2013-02-23 09:56:00,50.2,28.0,30.03,South,180,0.0,0.0,42,0.00,,---,0.00,VWS V14.01,2013-02-23 16:56:00,
2013-02-23 10:01:00,50.9,31.4,30.03,SE,135,0.0,0.0,47,0.00,,---,0.00,VWS V14.01,2013-02-23 17:01:00,
2013-02-23 10:06:00,51.4,31.9,30.03,NNE,22,0.0,0.0,47,0.00,,---,0.00,VWS V14.01,2013-02-23 17:06:00,
2013-02-23 10:11:00,52.2,30.4,30.03,East,90,0.0,0.0,43,0.00,,---,0.00,VWS V14.01,2013-02-23 17:11:00,
2013-02-23 10:16:00,52.7,32.0,30.03,ENE,68,0.0,0.0,45,0.00,,---,0.00,VWS V14.01,2013-02-23 17:16:00,
2013-02-23 10:21:00,53.8,33.0,30.03,East,90,0.0,0.0,45,0.00,,---,0.00,VWS V14.01,2013-02-23 17:21:00,
2013-02-23 10:27:00,54.3,33.5,30.00,SE,135,0.0,0.0,45,0.00,,---,0.00,VWS V14.01,2013-02-23 17:27:00,
2013-02-23 10:32:00,55.0,34.1,30.00,ESE,112,0.0,0.0,45,0.00,,---,0.00,VWS V14.01,2013-02-23 17:32:00,
2013-02-23 10:37:00,55.2,32.0,30.00,NNE,22,0.0,0.0,41,0.00,,---,0.00,VWS V14.01,2013-02-23 17:37:00,
2013-02-23 10:42:00,54.7,28.9,30.00,North,0,0.0,0.0,37,0.00,,---,0.00,VWS V14.01,2013-02-23 17:42:00,
2013-02-23 10:47:00,54.5,30.1,30.00,SE,135,0.0,0.0,39,0.00,,---,0.00,VWS V14.01,2013-02-23 17:47:00,
2013-02-23 10:52:00,55.0,29.9,30.00,North,0,0.0,0.0,38,0.00,,---,0.00,VWS V14.01,2013-02-23 17:52:00,
2013-02-23 10:57:00,55.0,29.3,30.00,NW,315,0.0,0.0,37,0.00,,---,0.00,VWS V14.01,2013-02-23 17:57:00,
2013-02-23 11:02:00,55.4,30.9,30.00,West,270,0.0,0.0,39,0.00,,---,0.00,VWS V14.01,2013-02-23 18:02:00,
2013-02-23 11:07:00,55.8,31.2,30.00,SW,225,0.0,0.0,39,0.00,,---,0.00,VWS V14.01,2013-02-23 18:07:00,
2013-02-23 11:12:00,56.5,31.8,30.00,WNW,292,2.5,2.5,39,0.00,,---,0.00,VWS V14.01,2013-02-23 18:12:00,
2013-02-23 11:17:00,56.1,28.9,30.00,WNW,292,0.0,0.0,35,0.00,,---,0.00,VWS V14.01,2013-02-23 18:17:00,
2013-02-23 11:22:00,56.3,29.0,30.00,ESE,112,0.0,0.0,35,0.00,,---,0.00,VWS V14.01,2013-02-23 18:22:00,
2013-02-23 11:27:00,56.1,30.2,29.97,SSW,202,0.0,0.0,37,0.00,,---,0.00,VWS V14.01,2013-02-23 18:27:00,
2013-02-23 11:32:00,56.8,30.9,29.97,SSW,202,0.0,0.0,37,0.00,,---,0.00,VWS V14.01,2013-02-23 18:32:00,
2013-02-23 11:37:00,57.4,30.7,29.97,WSW,248,0.0,0.0,36,0.00,,---,0.00,VWS V14.01,2013-02-23 18:37:00,
2013-02-23 11:43:00,57.6,31.5,29.97,WSW,248,0.0,0.0,37,0.00,,---,0.00,VWS V14.01,2013-02-23 18:43:00,
2013-02-23 11:48:00,58.3,32.2,29.97,SE,135,0.0,0.0,37,0.00,,---,0.00,VWS V14.01,2013-02-23 18:48:00,
2013-02-23 11:53:00,59.0,32.8,29.97,SE,135,0.0,0.0,37,0.00,,---,0.00,VWS V14.01,2013-02-23 18:53:00,
2013-02-23 11:58:00,59.2,33.0,29.97,South,180,0.0,0.0,37,0.00,,---,0.00,VWS V14.01,2013-02-23 18:58:00,
2013-02-23 12:03:00,59.4,32.4,29.97,SE,135,0.0,0.0,36,0.00,,---,0.00,VWS V14.01,2013-02-23 19:03:00,
2013-02-23 12:08:00,59.7,32.7,29.97,South,180,0.0,0.0,36,0.00,,---,0.00,VWS V14.01,2013-02-23 19:08:00,
2013-02-23 12:13:00,59.9,32.9,29.94,South,180,0.0,0.0,36,0.00,,---,0.00,VWS V14.01,2013-02-23 19:13:00,
2013-02-23 12:18:00,60.1,33.1,29.94,SSE,158,0.0,0.0,36,0.00,,---,0.00,VWS V14.01,2013-02-23 19:18:00,
2013-02-23 12:23:00,60.4,33.4,29.94,SW,225,0.0,0.0,36,0.00,,---,0.00,VWS V14.01,2013-02-23 19:23:00,
2013-02-23 12:28:00,60.1,31.6,29.94,ESE,112,0.0,0.0,34,0.00,,---,0.00,VWS V14.01,2013-02-23 19:28:00,
2013-02-23 12:33:00,60.3,32.5,29.94,SW,225,0.0,1.6,35,0.00,,---,0.00,VWS V14.01,2013-02-23 19:33:00,
2013-02-23 12:38:00,60.4,32.7,29.94,SSW,202,0.0,0.0,35,0.00,,---,0.00,VWS V14.01,2013-02-23 19:38:00,
2013-02-23 12:43:00,60.6,32.8,29.94,SE,135,2.0,2.0,35,0.00,,---,0.00,VWS V14.01,2013-02-23 19:43:00,
2013-02-23 12:49:00,61.0,33.2,29.94,SE,135,0.0,0.0,35,0.00,,---,0.00,VWS V14.01,2013-02-23 19:49:00,
2013-02-23 12:54:00,61.3,33.5,29.91,ESE,112,2.0,2.0,35,0.00,,---,0.00,VWS V14.01,2013-02-23 19:54:00,
2013-02-23 12:59:00,61.7,33.8,29.91,NW,315,0.0,0.0,35,0.00,,---,0.00,VWS V14.01,2013-02-23 19:59:00,
2013-02-23 13:04:00,61.3,32.8,29.91,WSW,248,0.0,0.0,34,0.00,,---,0.00,VWS V14.01,2013-02-23 20:04:00,
2013-02-23 13:09:00,60.8,32.3,29.91,West,270,0.0,0.0,34,0.00,,---,0.00,VWS V14.01,2013-02-23 20:09:00,
2013-02-23 13:14:00,61.5,32.9,29.91,SE,135,2.0,2.0,34,0.00,,---,0.00,VWS V14.01,2013-02-23 20:14:00,
2013-02-23 13:19:00,61.9,33.2,29.91,SSW,202,0.0,0.0,34,0.00,,---,0.00,VWS V14.01,2013-02-23 20:19:00,
2013-02-23 13:24:00,62.1,33.4,29.91,West,270,0.0,0.0,34,0.00,,---,0.00,VWS V14.01,2013-02-23 20:24:00,
2013-02-23 13:29:00,62.1,33.4,29.91,SSW,202,0.0,0.0,34,0.00,,---,0.00,VWS V14.01,2013-02-23 20:29:00,
2013-02-23 13:34:00,61.7,33.1,29.91,SW,225,0.0,3.4,34,0.00,,---,0.00,VWS V14.01,2013-02-23 20:34:00,
2013-02-23 13:39:00,61.5,32.9,29.88,WSW,248,0.0,0.0,34,0.00,,---,0.00,VWS V14.01,2013-02-23 20:39:00,
2013-02-23 13:44:00,61.3,32.8,29.88,WSW,248,0.0,0.0,34,0.00,,---,0.00,VWS V14.01,2013-02-23 20:44:00,
2013-02-23 13:50:00,61.9,33.2,29.88,SW,225,0.0,0.0,34,0.00,,---,0.00,VWS V14.01,2013-02-23 20:50:00,
2013-02-23 13:55:00,62.2,33.5,29.88,South,180,0.0,0.0,34,0.00,,---,0.00,VWS V14.01,2013-02-23 20:55:00,
2013-02-23 14:00:00,62.6,32.3,29.88,SW,225,0.0,0.0,32,0.00,,---,0.00,VWS V14.01,2013-02-23 21:00:00,
2013-02-23 14:05:00,62.6,33.1,29.88,WNW,292,0.0,0.0,33,0.00,,---,0.00,VWS V14.01,2013-02-23 21:05:00,
2013-02-23 14:10:00,62.8,32.5,29.88,SE,135,0.0,0.0,32,0.00,,---,0.00,VWS V14.01,2013-02-23 21:10:00,
2013-02-23 14:15:00,63.1,32.0,29.88,SSW,202,0.0,1.1,31,0.00,,---,0.00,VWS V14.01,2013-02-23 21:15:00,
2013-02-23 14:20:00,63.0,32.7,29.88,WNW,292,0.0,0.0,32,0.00,,---,0.00,VWS V14.01,2013-02-23 21:20:00,
2013-02-23 14:25:00,62.6,30.8,29.88,WSW,248,0.0,0.0,30,0.00,,---,0.00,VWS V14.01,2013-02-23 21:25:00,
2013-02-23 14:30:00,62.8,31.7,29.88,WSW,248,0.0,0.0,31,0.00,,---,0.00,VWS V14.01,2013-02-23 21:30:00,
2013-02-23 14:35:00,62.6,32.3,29.88,NW,315,0.0,0.0,32,0.00,,---,0.00,VWS V14.01,2013-02-23 21:35:00,
2013-02-23 14:40:00,62.2,31.2,29.85,South,180,0.0,0.0,31,0.00,,---,0.00,VWS V14.01,2013-02-23 21:40:00,
2013-02-23 14:45:00,62.8,30.9,29.85,WSW,248,0.0,0.0,30,0.00,,---,0.00,VWS V14.01,2013-02-23 21:45:00,
2013-02-23 14:51:00,63.0,31.1,29.85,SW,225,0.0,0.0,30,0.00,,---,0.00,VWS V14.01,2013-02-23 21:51:00,
2013-02-23 14:56:00,62.8,30.9,29.85,SW,225,0.0,0.0,30,0.00,,---,0.00,VWS V14.01,2013-02-23 21:56:00,
2013-02-23 15:01:00,63.3,30.5,29.85,WSW,248,0.0,0.0,29,0.00,,---,0.00,VWS V14.01,2013-02-23 22:01:00,
2013-02-23 15:06:00,63.9,31.0,29.85,SE,135,0.0,0.0,29,0.00,,---,0.00,VWS V14.01,2013-02-23 22:06:00,
2013-02-23 15:11:00,63.9,30.1,29.85,SSW,202,4.7,4.7,28,0.00,,---,0.00,VWS V14.01,2013-02-23 22:11:00,
2013-02-23 15:16:00,63.9,30.1,29.85,SSW,202,0.0,0.9,28,0.00,,---,0.00,VWS V14.01,2013-02-23 22:16:00,
2013-02-23 15:21:00,64.0,30.3,29.85,South,180,3.4,3.4,28,0.00,,---,0.00,VWS V14.01,2013-02-23 22:21:00,
2013-02-23 15:26:00,64.2,30.5,29.85,WSW,248,0.0,0.0,28,0.00,,---,0.00,VWS V14.01,2013-02-23 22:26:00,
2013-02-23 15:31:00,63.9,30.1,29.85,SW,225,0.9,0.9,28,0.00,,---,0.00,VWS V14.01,2013-02-23 22:31:00,
2013-02-23 15:36:00,63.5,30.7,29.85,SW,225,0.0,0.0,29,0.00,,---,0.00,VWS V14.01,2013-02-23 22:36:00,
2013-02-23 15:41:00,63.5,30.7,29.85,SW,225,1.3,1.3,29,0.00,,---,0.00,VWS V14.01,2013-02-23 22:41:00,
2013-02-23 15:46:00,63.3,30.5,29.85,WSW,248,2.9,2.9,29,0.00,,---,0.00,VWS V14.01,2013-02-23 22:46:00,
2013-02-23 15:51:00,63.5,29.8,29.85,SW,225,0.9,0.9,28,0.00,,---,0.00,VWS V14.01,2013-02-23 22:51:00,
2013-02-23 15:56:00,63.3,28.8,29.85,SE,135,0.0,0.0,27,0.00,,---,0.00,VWS V14.01,2013-02-23 22:56:00,
2013-02-23 16:01:00,63.3,29.7,29.85,WSW,248,0.0,0.0,28,0.00,,---,0.00,VWS V14.01,2013-02-23 23:01:00,
2013-02-23 16:06:00,63.5,29.8,29.85,SW,225,2.2,3.8,28,0.00,,---,0.00,VWS V14.01,2013-02-23 23:06:00,
2013-02-23 16:12:00,63.5,29.8,29.82,SW,225,0.0,0.0,28,0.00,,---,0.00,VWS V14.01,2013-02-23 23:12:00,
2013-02-23 16:17:00,63.5,29.8,29.82,SSW,202,0.0,0.0,28,0.00,,---,0.00,VWS V14.01,2013-02-23 23:17:00,
2013-02-23 16:22:00,63.7,30.0,29.82,SW,225,2.5,2.5,28,0.00,,---,0.00,VWS V14.01,2013-02-23 23:22:00,
2013-02-23 16:27:00,63.7,30.0,29.82,South,180,0.0,0.0,28,0.00,,---,0.00,VWS V14.01,2013-02-23 23:27:00,
2013-02-23 16:32:00,63.5,29.0,29.82,SW,225,0.0,1.1,27,0.00,,---,0.00,VWS V14.01,2013-02-23 23:32:00,
2013-02-23 16:37:00,63.3,29.7,29.82,WSW,248,0.0,0.0,28,0.00,,---,0.00,VWS V14.01,2013-02-23 23:37:00,
2013-02-23 16:42:00,63.1,28.6,29.82,SW,225,1.1,1.1,27,0.00,,---,0.00,VWS V14.01,2013-02-23 23:42:00,
2013-02-23 16:47:00,63.0,29.4,29.82,SSW,202,0.0,2.7,28,0.00,,---,0.00,VWS V14.01,2013-02-23 23:47:00,
2013-02-23 16:52:00,62.6,29.1,29.82,SSW,202,0.0,2.2,28,0.00,,---,0.00,VWS V14.01,2013-02-23 23:52:00,
2013-02-23 16:57:00,62.2,28.8,29.82,WSW,248,0.0,4.0,28,0.00,,---,0.00,VWS V14.01,2013-02-23 23:57:00,
2013-02-23 17:03:00,62.2,28.8,29.82,WSW,248,0.0,0.0,28,0.00,,---,0.00,VWS V14.01,2013-02-24 00:03:00,
2013-02-23 17:08:00,61.7,28.3,29.82,SW,225,0.0,0.0,28,0.00,,---,0.00,VWS V14.01,2013-02-24 00:08:00,
2013-02-23 17:13:00,61.3,28.0,29.82,WSW,248,0.0,0.0,28,0.00,,---,0.00,VWS V14.01,2013-02-24 00:13:00,
2013-02-23 17:18:00,60.8,27.5,29.82,SW,225,0.0,0.0,28,0.00,,---,0.00,VWS V14.01,2013-02-24 00:18:00,
2013-02-23 17:23:00,60.6,28.2,29.82,WSW,248,0.0,0.0,29,0.00,,---,0.00,VWS V14.01,2013-02-24 00:23:00,
2013-02-23 17:28:00,60.4,28.9,29.82,NNW,338,0.0,0.0,30,0.00,,---,0.00,VWS V14.01,2013-02-24 00:28:00,
2013-02-23 17:33:00,59.5,26.4,29.82,WNW,292,0.0,0.0,28,0.00,,---,0.00,VWS V14.01,2013-02-24 00:33:00,
2013-02-23 17:38:00,59.0,26.8,29.82,NW,315,0.0,0.0,29,0.00,,---,0.00,VWS V14.01,2013-02-24 00:38:00,
2013-02-23 17:43:00,58.5,27.2,29.82,WSW,248,0.0,0.0,30,0.00,,---,0.00,VWS V14.01,2013-02-24 00:43:00,
2013-02-23 17:48:00,57.9,25.9,29.82,WSW,248,0.0,0.0,29,0.00,,---,0.00,VWS V14.01,2013-02-24 00:48:00,
2013-02-23 17:53:00,57.4,25.4,29.82,West,270,0.0,0.0,29,0.00,,---,0.00,VWS V14.01,2013-02-24 00:53:00,
2013-02-23 17:58:00,56.8,24.9,29.82,WSW,248,0.0,0.0,29,0.00,,---,0.00,VWS V14.01,2013-02-24 00:58:00,
2013-02-23 18:03:00,56.3,25.3,29.82,WSW,248,0.0,0.0,30,0.00,,---,0.00,VWS V14.01,2013-02-24 01:03:00,
2013-02-23 18:08:00,55.8,24.8,29.82,WSW,248,0.0,0.0,30,0.00,,---,0.00,VWS V14.01,2013-02-24 01:08:00,
2013-02-23 18:13:00,55.2,25.1,29.79,WNW,292,0.0,0.0,31,0.00,,---,0.00,VWS V14.01,2013-02-24 01:13:00,
2013-02-23 18:18:00,54.7,25.4,29.79,WNW,292,0.0,0.0,32,0.00,,---,0.00,VWS V14.01,2013-02-24 01:18:00,
2013-02-23 18:24:00,54.1,25.0,29.79,WNW,292,0.0,0.0,32,0.00,,---,0.00,VWS V14.01,2013-02-24 01:24:00,
2013-02-23 18:29:00,53.6,25.2,29.79,WNW,292,0.0,0.0,33,0.00,,---,0.00,VWS V14.01,2013-02-24 01:29:00,
2013-02-23 18:34:00,53.1,24.7,29.79,WNW,292,0.0,0.0,33,0.00,,---,0.00,VWS V14.01,2013-02-24 01:34:00,
2013-02-23 18:39:00,52.5,25.0,29.79,WNW,292,0.0,0.0,34,0.00,,---,0.00,VWS V14.01,2013-02-24 01:39:00,
2013-02-23 18:44:00,52.2,26.0,29.79,WNW,292,0.0,0.0,36,0.00,,---,0.00,VWS V14.01,2013-02-24 01:44:00,
2013-02-23 18:49:00,51.6,25.6,29.79,WNW,292,0.0,0.0,36,0.00,,---,0.00,VWS V14.01,2013-02-24 01:49:00,
2013-02-23 18:54:00,51.4,26.0,29.82,WNW,292,0.0,0.0,37,0.00,,---,0.00,VWS V14.01,2013-02-24 01:54:00,
2013-02-23 18:59:00,51.1,25.7,29.82,WNW,292,0.0,0.0,37,0.00,,---,0.00,VWS V14.01,2013-02-24 01:59:00,
2013-02-23 19:04:00,50.7,25.4,29.82,WNW,292,0.0,0.0,37,0.00,,---,0.00,VWS V14.01,2013-02-24 02:04:00,
2013-02-23 19:09:00,50.5,25.2,29.82,WNW,292,0.0,0.0,37,0.00,,---,0.00,VWS V14.01,2013-02-24 02:09:00,
2013-02-23 19:14:00,50.2,24.9,29.82,WNW,292,0.0,0.0,37,0.00,,---,0.00,VWS V14.01,2013-02-24 02:14:00,
2013-02-23 19:19:00,50.0,24.8,29.82,NW,315,0.0,0.0,37,0.00,,---,0.00,VWS V14.01,2013-02-24 02:19:00,
2013-02-23 19:25:00,50.0,24.8,29.82,NNW,338,0.0,0.0,37,0.00,,---,0.00,VWS V14.01,2013-02-24 02:25:00,
2013-02-23 19:30:00,49.6,25.1,29.82,NNW,338,0.0,0.0,38,0.00,,---,0.00,VWS V14.01,2013-02-24 02:30:00,
2013-02-23 19:35:00,49.8,25.2,29.82,NW,315,0.0,0.0,38,0.00,,---,0.00,VWS V14.01,2013-02-24 02:35:00,
2013-02-23 19:40:00,49.6,25.1,29.82,NNW,338,0.0,0.0,38,0.00,,---,0.00,VWS V14.01,2013-02-24 02:40:00,
2013-02-23 19:45:00,49.6,25.1,29.82,NNW,338,0.0,0.0,38,0.00,,---,0.00,VWS V14.01,2013-02-24 02:45:00,
2013-02-23 19:50:00,49.6,25.1,29.82,NNW,338,0.0,0.0,38,0.00,,---,0.00,VWS V14.01,2013-02-24 02:50:00,
2013-02-23 19:55:00,49.3,25.4,29.82,NNW,338,0.0,0.0,39,0.00,,---,0.00,VWS V14.01,2013-02-24 02:55:00,
2013-02-23 20:00:00,48.6,24.7,29.82,NNW,338,0.0,0.0,39,0.00,,---,0.00,VWS V14.01,2013-02-24 03:00:00,
2013-02-23 20:05:00,48.7,24.9,29.82,NNW,338,0.0,0.0,39,0.00,,---,0.00,VWS V14.01,2013-02-24 03:05:00,
2013-02-23 20:10:00,48.6,24.7,29.82,NNW,338,0.0,0.0,39,0.00,,---,0.00,VWS V14.01,2013-02-24 03:10:00,
2013-02-23 20:15:00,48.6,25.4,29.82,NNW,338,0.0,0.0,40,0.00,,---,0.00,VWS V14.01,2013-02-24 03:15:00,
2013-02-23 20:20:00,48.2,25.6,29.82,NNW,338,0.0,0.0,41,0.00,,---,0.00,VWS V14.01,2013-02-24 03:20:00,
2013-02-23 20:25:00,47.7,25.7,29.82,NNW,338,0.0,0.0,42,0.00,,---,0.00,VWS V14.01,2013-02-24 03:25:00,
2013-02-23 20:30:00,47.8,26.4,29.82,NNW,338,0.0,0.0,43,0.00,,---,0.00,VWS V14.01,2013-02-24 03:30:00,
2013-02-23 20:36:00,47.5,26.1,29.82,NNW,338,0.0,0.0,43,0.00,,---,0.00,VWS V14.01,2013-02-24 03:36:00,
2013-02-23 20:41:00,47.5,26.1,29.82,NNW,338,0.0,0.0,43,0.00,,---,0.00,VWS V14.01,2013-02-24 03:41:00,
2013-02-23 20:46:00,47.3,26.5,29.82,NNW,338,0.0,0.0,44,0.00,,---,0.00,VWS V14.01,2013-02-24 03:46:00,
2013-02-23 20:51:00,47.3,26.5,29.82,NNW,338,0.0,0.0,44,0.00,,---,0.00,VWS V14.01,2013-02-24 03:51:00,
2013-02-23 20:56:00,47.1,25.8,29.82,NNW,338,0.0,0.0,43,0.00,,---,0.00,VWS V14.01,2013-02-24 03:56:00,
2013-02-23 21:01:00,46.9,25.6,29.82,NNW,338,0.0,0.0,43,0.00,,---,0.00,VWS V14.01,2013-02-24 04:01:00,
2013-02-23 21:06:00,46.9,25.6,29.82,NNW,338,0.0,0.0,43,0.00,,---,0.00,VWS V14.01,2013-02-24 04:06:00,
2013-02-23 21:11:00,46.8,26.0,29.82,NW,315,0.0,0.0,44,0.00,,---,0.00,VWS V14.01,2013-02-24 04:11:00,
2013-02-23 21:16:00,46.6,25.9,29.82,NNW,338,0.0,0.0,44,0.00,,---,0.00,VWS V14.01,2013-02-24 04:16:00,
2013-02-23 21:21:00,46.4,25.7,29.82,NNW,338,0.0,0.0,44,0.00,,---,0.00,VWS V14.01,2013-02-24 04:21:00,
2013-02-23 21:26:00,46.4,25.7,29.82,NNW,338,0.0,0.0,44,0.00,,---,0.00,VWS V14.01,2013-02-24 04:26:00,
2013-02-23 21:31:00,46.2,26.6,29.82,North,0,0.0,0.0,46,0.00,,---,0.00,VWS V14.01,2013-02-24 04:31:00,
2013-02-23 21:36:00,46.2,26.6,29.82,NNW,338,0.0,0.0,46,0.00,,---,0.00,VWS V14.01,2013-02-24 04:36:00,
2013-02-23 21:41:00,46.2,26.6,29.82,NNW,338,0.0,0.0,46,0.00,,---,0.00,VWS V14.01,2013-02-24 04:41:00,
2013-02-23 21:47:00,46.2,26.6,29.82,NNW,338,0.0,0.0,46,0.00,,---,0.00,VWS V14.01,2013-02-24 04:47:00,
2013-02-23 21:52:00,46.6,26.4,29.82,NNW,338,0.0,0.0,45,0.00,,---,0.00,VWS V14.01,2013-02-24 04:52:00,
2013-02-23 21:57:00,46.8,26.0,29.82,North,0,0.0,0.0,44,0.00,,---,0.00,VWS V14.01,2013-02-24 04:57:00,
2013-02-23 22:00:00,46.9,26.2,29.82,NNW,338,0.0,0.0,44,0.00,,---,0.00,VWS V14.01,2013-02-24 05:00:00,
2013-02-23 22:01:00,46.8,26.0,29.82,NNW,338,0.0,0.0,44,0.00,,---,0.00,VWS V14.01,2013-02-24 05:01:00,
2013-02-23 22:06:00,46.6,25.9,29.82,North,0,0.0,0.0,44,0.00,,---,0.00,VWS V14.01,2013-02-24 05:06:00,
2013-02-23 22:11:00,46.4,25.7,29.82,NNW,338,0.0,0.0,44,0.00,,---,0.00,VWS V14.01,2013-02-24 05:11:00,
2013-02-23 22:16:00,46.2,26.1,29.82,NNW,338,0.0,0.0,45,0.00,,---,0.00,VWS V14.01,2013-02-24 05:16:00,
2013-02-23 22:21:00,45.9,25.7,29.82,NNW,338,0.0,0.0,45,0.00,,---,0.00,VWS V14.01,2013-02-24 05:21:00,
2013-02-23 22:26:00,45.9,25.7,29.82,NNW,338,0.0,0.0,45,0.00,,---,0.00,VWS V14.01,2013-02-24 05:26:00,
2013-02-23 22:31:00,45.9,25.7,29.82,NNW,338,0.0,0.0,45,0.00,,---,0.00,VWS V14.01,2013-02-24 05:31:00,
2013-02-23 22:36:00,45.9,25.7,29.82,NNW,338,0.0,0.0,45,0.00,,---,0.00,VWS V14.01,2013-02-24 05:36:00,
2013-02-23 22:41:00,45.7,26.6,29.82,NNW,338,0.0,0.0,47,0.00,,---,0.00,VWS V14.01,2013-02-24 05:41:00,
2013-02-23 22:47:00,46.0,26.4,29.82,NNW,338,0.0,0.0,46,0.00,,---,0.00,VWS V14.01,2013-02-24 05:47:00,
2013-02-23 22:52:00,45.7,26.1,29.82,WNW,292,0.0,0.0,46,0.00,,---,0.00,VWS V14.01,2013-02-24 05:52:00,
2013-02-23 22:57:00,45.7,25.6,29.82,NNW,338,0.0,0.0,45,0.00,,---,0.00,VWS V14.01,2013-02-24 05:57:00,
2013-02-23 23:02:00,45.7,26.1,29.82,NNW,338,0.0,0.0,46,0.00,,---,0.00,VWS V14.01,2013-02-24 06:02:00,
2013-02-23 23:07:00,45.1,25.6,29.82,NNW,338,0.0,0.0,46,0.00,,---,0.00,VWS V14.01,2013-02-24 06:07:00,
2013-02-23 23:12:00,44.8,25.3,29.82,NNW,338,0.0,0.0,46,0.00,,---,0.00,VWS V14.01,2013-02-24 06:12:00,
2013-02-23 23:17:00,44.4,25.5,29.82,NNW,338,0.0,0.0,47,0.00,,---,0.00,VWS V14.01,2013-02-24 06:17:00,
2013-02-23 23:22:00,44.4,25.5,29.82,NNW,338,0.0,0.0,47,0.00,,---,0.00,VWS V14.01,2013-02-24 06:22:00,
2013-02-23 23:27:00,44.4,25.5,29.82,NNW,338,0.0,0.0,47,0.00,,---,0.00,VWS V14.01,2013-02-24 06:27:00,
2013-02-23 23:32:00,44.4,26.0,29.82,NNW,338,0.0,0.0,48,0.00,,---,0.00,VWS V14.01,2013-02-24 06:32:00,
2013-02-23 23:37:00,44.4,26.0,29.82,NNW,338,0.0,0.0,48,0.00,,---,0.00,VWS V14.01,2013-02-24 06:37:00,
2013-02-23 23:43:00,44.2,25.3,29.82,NNW,338,0.0,0.0,47,0.00,,---,0.00,VWS V14.01,2013-02-24 06:43:00,
2013-02-23 23:48:00,44.2,25.8,29.82,NNW,338,0.0,0.0,48,0.00,,---,0.00,VWS V14.01,2013-02-24 06:48:00,
2013-02-23 23:53:00,43.7,25.3,29.82,NNW,338,0.0,0.0,48,0.00,,---,0.00,VWS V14.01,2013-02-24 06:53:00,
2013-02-23 23:58:00,43.7,25.3,29.82,NNW,338,0.0,0.0,48,0.00,,---,0.00,VWS V14.01,2013-02-24 06:58:00,